Regional Weather Roundup
Issued by NWS

Home | Current Version | Previous Version | Text Only | Print | Product List | Glossary Off
Versions: 1 2 3 4 5 6 7 8 9 10 11 12 13 14 15 16 17 18 19 20 21 22 23 24 25 26 27

000
ASUS45 KBOI 230210
RWRID

IDAHO REGIONAL WEATHER ROUNDUP
NATIONAL WEATHER SERVICE BOISE ID
800 PM MDT SAT JUL 22 2017

NOTE: "FAIR" INDICATES FEW OR NO CLOUDS BELOW 12000 FEET
WITH NO SIGNIFICANT WEATHER AND/OR OBSTRUCTIONS TO VISIBILITY

IDZ012-014-230300-
SOUTHWEST IDAHO


CITY           SKY/WX    TMP DP  RH WIND       PRES   REMARKS
BOISE          FAIR      91  35  13 W8        30.00F
CALDWELL       FAIR      89  44  20 W6        29.98F
$$

IDZ016-017-230300-
SOUTHCENTRAL IDAHO


CITY           SKY/WX    TMP DP  RH WIND       PRES   REMARKS
BURLEY         FAIR      78  46  32 SW8       30.07S
JEROME         FAIR      86  47  25 S6        30.07F
TWIN FALLS     FAIR      88  32  13 W6        30.08F
$$

IDZ019>023-230300-
SOUTHEAST IDAHO


CITY           SKY/WX    TMP DP  RH WIND       PRES   REMARKS
IDAHO FALLS    CLEAR     80  50  34 SW7       30.13S
POCATELLO      CLEAR     87  29  12 SW8       30.10F
REXBURG        CLEAR     84  36  18 SE3       30.13F
$$

IDZ006-010-011-018-031-032-230300-
CENTRAL IDAHO MOUNTAINS


CITY           SKY/WX    TMP DP  RH WIND       PRES   REMARKS
MCCALL         NOT AVBL
HAILEY         SUNNY     82  43  24 SW7       30.15S
STANLEY          N/A     83  31  15 N5        30.23F
SALMON         NOT AVBL
CHALLIS        FAIR      85  36  17 N7        30.11S
$$

IDZ002-004-006-007-026-230300-
NORTHERN IDAHO


CITY           SKY/WX    TMP DP  RH WIND       PRES   REMARKS
LEWISTON       FAIR      92  45  19 N5        30.00F
LOWELL         NOT AVBL
COEUR D`ALENE  FAIR      86  50  28 W6        30.07F
MULLAN PASS    FAIR      68  43  40 NW5       30.29F
$$




USA.gov is the U.S. government's official web portal to all federal, state and local government web resources and services.